Погода в Ряжске

Погода в Ряжске : погода сейчас, прогноз погоды и архив. Всё, что Вы хотите узнать о погоде в Ряжске!

Хотите узнать прогноз погоды в Ряжске? Тогда Вам сюда: Погода в Ряжске

Поиск расширенной информации на нашем сайте:

Другие новости

Новости СМИ2

Главная страница сайта

Новости сайта

02.10.2013

Напоминаем, что на нашем новом сайте вы можете получить высокодетализированные прогнозы погоды по пунктам России, СНГ и мира (включающие важные для авиации метеовеличины, такие как направление и скорость ветра, видимость, явления погоды, количество и форма облачности, нижняя и верхняя граница облачности), а также ознакомиться с разнообразными материалами по авиационной метеорологии и подборкой полезных ссылок на эту тему.

Сайт Метеоцентр.Азия посвящён разработке технологий оптимизации авиаметеорологического обслуживания, включая проектирование и перспективное создание нескольких автоматизированных авиаметеорологических систем:
- система выпуска высокодетальных прогностических карт явлений погоды для нижнего воздушного пространства по России и ближнему зарубежью;
- система верификации прогнозов TAF (выпускаемых синоптиками официальных АМСГ РФ и ближнего зарубежья) и AUTOTAF (выпускаемых сайтом Метеоцентр.Азия) - выявление ошибок, онлайн-сопоставление с фактической погодой METAR, автоматическое внесение коррективов в прогнозы при резком отклонении фактической погоды от прогноза, подсчёт оправдываемости прогнозов по элементам и в целом;
- система обработки, анализа и отображения авиаметеорологической информации для применения провайдерами метеорологической информации.

Рекомендуем: Помощь в доставке и таможенном оформлении товаров из китая.

Погода в Ряжске - сегодня

Время (UTC), дата Ветер
(°,м/с) 
Видим.   Явления Облачность Т
(°С)
Тd
(°С)
f(%) Тe
(°С)
Pmin
(гПа)
dP
(гПа)
Po
(мм)
O2
(г/м3)
Тmin Tmax R s Состояние
почвы
18 23.03.17 170 (Ю) н/о    ясно 
+0.4 -1.2 89 +1  1024.3  1.6  756  304           
21 23.03.17 170 (Ю) 4000 м  дымка  ясно 
-0.5 -1.2 95 1024.8  0.4  757  306           
00 24.03.17 170 (Ю) 4000 м  дымка  ясно 
-1.4 -1.8 97 -1  1025  0.1  757  307           
03 24.03.17 180 (Ю) 4000 м  дымка  6/0 верхняя 
[Ci sp]
-2.4 -2.6 99 -2  1024.8  -0.3  756  308  -2.4         
06 24.03.17 190 (Ю) 10 км    6/0 верхняя 
[Ci sp]
+2.9 -0.4 79 +4  1023.7  -0.7  756  301  -2.5         
09 24.03.17 210 (ЮЗ) 10 км    9/6 600 м средняя, верхняя 
[Sc|Ac trans|Ci sp]
+8.5 +1.2 60 +8  1021.5  -1.9  754  295           
12 24.03.17 180 (Ю) 10 км    10/10 600 м 
[Sc]
+8.2 +0.2 57 +8  1017.7  -3.7  752  294           
15 24.03.17 тихо ()   10 км    10/10 600 м 
[Sc]
+6.7 +1.5 69 +7  1014.2  -3.6  749  294    +9.2       
18 24.03.17 010 (С) 4000 м  слаб. дождь  10/10 300 м 
[Frnb|Ns]
+3.7 +2.9 94 +5  1011.3  -3  747  296           
21 24.03.17 330 (СЗ) 4000 м  слаб. дождь  10/10 300 м 
[Frnb|Ns]
+2.5 +1.8 95 +2  1009.9  -1.5  746  297           
00 25.03.17 350 (С) 5-12{12}  4000 м  слаб. дождь  10/10 300 м 
[Frnb|Ns]
+0.9 -0.8 88 -2  1010.5  0.6  746  300           
03 25.03.17 310 (СЗ) 3{12}  4000 м  дымка{дождь}  8/6 600 м средняя 
[Sc|Ac trans]
-0.3 -1.7 90 -2  1011.5  0.9  747  301  -0.3       
06 25.03.17 310 (СЗ) 10 км  {дождь}  4/1 600 м средняя 
[Sc|Ac trans]
+0.8 -4.1 70 -2  1012.7  1.2  748  301  -0.4         
09 25.03.17 320 (СЗ) 4{11}  10 км    9/8 600 м средняя 
[Sc|Ac trans]
+1.9 -5.5 58 1013  0.3  748  300           
12 25.03.17 320 (СЗ) 4{11}  10 км    10/10 1000 м 
[Sc]
+2.1 -6.5 53 1012.9  -0.1  748  300           
15 25.03.17 320 (СЗ) 10 км    10/0 средняя 
[Ac As]
+2.3 -5.5 56 +2  1013.2  0.3  748  299    +2.4       
18 25.03.17 060 (СВ) н/о    4/0 средняя 
[Ac trans]
-1.4 -4.4 80 -1  1013.9  0.4  748  304           
21 25.03.17 260 (З) н/о    10/0 средняя 
[Ac As]
+0.1 -4.4 72 +1  1014.2  0.4  749  302           
00 26.03.17 330 (СЗ) н/о    ясно 
-1.3 -5.5 73 -1  1014.9  0.6  749  304           
03 26.03.17 190 (Ю) 4000 м  дымка  3/0 верхняя 
[Ci sp]
-4.9 -5.7 94 -4  1015.9  0.8  750  308  -4.9         
06 26.03.17 330 (СЗ) 10 км    4/0 верхняя 
[Ci fib]
+1.8 -6 56 +3  1016.7  1.1  751  301           
09 26.03.17 290 (З) 10 км    4/4 1000 м 
[Cu hum]
+5.8 -8.9 34 +6  1016.5  751  297           
12 26.03.17 260 (З) 10 км    6/6 1000 м 
[Cu hum]
+6.3 -9.4 31 +6  1015  -1.4  750  296           
15 26.03.17 260 (З) 10 км    4/4 1000 м 
[Cu hum]
+5.8 -9.2 33 +5  1013.3  -1.7  748  296    +7.2       
18 26.03.17 200 (Ю) н/о    ясно 
-0.8 -5.5 70 1011.8  -1.9  747  302           
Время (UTC), дата Ветер
(°,м/с) 
Видим.   Явления Облачность Т
(°С)
Тd
(°С)
f(%) Тe
(°С)
Pmin
(гПа)
dP
(гПа)
Po
(мм)
O2
(г/м3)
Тmin Tmax R s Состояние
почвы

Для получения пояснительной информации подведите курсор к названию столбца.

ПОГОДА в Ряжске - архив

Всё, что Вы хотите узнать о погоде в Ряжске - удобно и подробно!

Выберите нужную дату (начиная с 1 января 2015* года) и нажмите кнопку "Найти".
Будут отображены архивные сводки погоды по пункту Ряжск, начиная с указанной даты.


Отображать данные в формате CSV (для использования в таблицах Excel)


Внимание! Наш архив погоды предназначен исключительно для личного некоммерческого использования в познавательных целях. Если Вам необходимы официальные справки о состоянии погоды (для производственных, юридических, коммерческих и т.п. целей), обращайтесь в органы Росгидромета.

*Примечание: данная дата относится к архиву по метеостанциям СССР (Россия, СНГ, Балтия).
Архив по метеостанциям Зарубежной Европы и Азии (кроме Китая) хранится 10 дней, по другим регионам земного шара (Китай, Африка, Америка, Австралия, Океания) - 1 день.

Ряжск - район местоположения метеостанции


Название, широта, долгота, высота метеостанции:
Ряжск 53.7°ш. 40.1°д. 127 м над ур. моря [Российская Федерация]

Дополнительная информация

В oтличие oт бoльшинства пoгoдных сайтoв мы публикуем пoдрoбную метеoинфoрмацию в детальнoм прoфессиoнальнoм фoрмате.

Характеристики температуры и влажнoсти вoздуха измеряются на высoте 2 м в тени вдали oт зданий и деревьев.
Скoрoсть ветра измеряется на высoте 10 м (на урoвне рoста челoвека скoрoсть ветра ниже в 1.5-2 раза). Если метеoстанция нахoдится в гoрoде или в лесу, тo скoрoсть ветра занижена на 2-4 м/с пo сравнению с oткрытым местoм. Скoрoсть ветра над акватoриями крупных рек и oзёр, а также на вершинах хoлмoв на 2-5 м/с выше, чем в oбычных услoвиях.
Атмoсфернoе давление в разных тoчках местнoсти мoжет значительнo oтличаться oт давления на метеoстанции, в зависимoсти oт услoвий рельефа (при пoдъёме на 10 м давление пoнижается примернo на 1 мм рт.ст.).